Regional Weather Roundup
Issued by NWS Albany, NY

Home | Current Version | Previous Version | Text Only | Print | Product List | Glossary On
Versions: 1 2 3 4 5 6 7 8 9 10 11 12 13 14 15 16 17 18 19 20 21 22 23 24 25 26 27 28 29 30 31 32 33 34 35 36 37 38 39 40 41 42 43 44 45 46 47 48 49 50
000
ASUS41 KALY 030810
RWRALY

NEW YORK STATE HOURLY WEATHER ROUNDUP
NATIONAL WEATHER SERVICE ALBANY NY
400 AM EDT SUN MAY 03 2015

NOTE: "FAIR" INDICATES FEW OR NO CLOUDS BELOW 12,000 FEET WITH NO
SIGNIFICANT WEATHER AND/OR NO OBSTRUCTIONS TO VISIBILITY.

NYZ032-033-038>043-046>054-057>066-NYZ062>081-030900-
EAST


CITY           SKY/WX    TMP DP  RH WIND       PRES   REMARKS
ALBANY         PTCLDY    49  37  63 CALM      30.00R
GLENS FALLS    CLEAR     45  37  73 CALM      29.98R
POUGHKEEPSIE   CLEAR     45  39  79 CALM      30.02S
NEWBURGH       CLEAR     45  41  87 CALM      30.03S
MONTGOMERY     PTCLDY    42  40  92 CALM      30.02R
WHITE PLAINS   CLEAR     43  38  82 CALM      30.03S
ISLIP          CLEAR     44  39  82 CALM      30.04R
NEW YORK CITY  PTCLDY    52  36  54 SW6       30.04S
CENTRAL PARK   CLEAR     52  34  50 W5        30.07R
$$

NYZ005>009-017-018-044>046-055-056-030900-
CENTRAL


CITY           SKY/WX    TMP DP  RH WIND       PRES   REMARKS
FULTON         CLEAR     44  38  79 SE3       30.01R
SYRACUSE       PTCLDY    49  38  65 SE3       30.01S
ROME           CLEAR     42  37  82 CALM      30.04R
ELMIRA         PTCLDY    40  36  86 CALM      30.05R
BINGHAMTON     CLEAR     49  34  56 W7        30.03R
MONTICELLO     CLEAR     43  36  75 CALM      30.04S
$$

NYZ026>034-041>043-030900-
NORTH


CITY           SKY/WX    TMP DP  RH WIND       PRES   REMARKS
WATERTOWN      CLEAR     50  35  56 S3        29.99S
FORT DRUM      NOT AVBL
MASSENA        PTCLDY    49  37  63 SW7       29.95R
SARANAC LAKE   PTCLDY    37  34  89 CALM      29.97S
PLATTSBURGH    PTCLDY    50  38  63 CALM      29.94R
$$

NYZ001>004-010>016-019>021-030900-
WEST


CITY           SKY/WX    TMP DP  RH WIND       PRES   REMARKS
NIAGARA FALLS  CLEAR     48  36  63 S3        30.01R
BUFFALO        PTCLDY    49  37  63 S6        30.01S
DUNKIRK        CLEAR     51  36  56 SW6       30.02S
JAMESTOWN      CLEAR     48  30  49 S5        30.05S
WELLSVILLE     PTCLDY    52  28  39 W3        30.07R
ROCHESTER      PTCLDY    52  38  58 SW6       30.01R
PENN YAN       MOCLDY    50  38  63 SW8       30.03R
$$

             KEY
       WCI = WIND CHILL INDEX
       VSB = VISIBILITY
       HX  = HEAT INDEX
$$



USA.gov is the U.S. government's official web portal to all federal, state and local government web resources and services.